Back to catalog

DELTA 1 DEB

AliveLEO
NORAD 7131·DEBRIS·🇺🇸 United States

Launched Nov 6, 1973 from Vandenberg Space Force Base

Loading…

Next Passes (next 24 hours)

TLE

FreshSource: Space-Track

Epoch: Sep 14, 2026, 08:00 UTC

1 07131U 73086CV  26257.33355236  .00000533  00000-0  56232-2 0  9999
2 07131 101.9027 191.6525 0169991 108.2089  42.2254 12.15235594336251

Track DELTA 1 DEB in real time with AllMySat

Download on the App Store